sat.trackr.live / text

‹ back to catalog

SKYSAT-C7

NORAD 42991 · 2017-068E

PAYLOAD ACTIVE UNKNOWN

§ Identity

Operator
Country
US
Launch date
2017-10-31
Launch site
AFWTR
Launch vehicle
Mass (kg)
RCS (m²)

Purposes: earth_obs

External: N2YO · Heavens-Above · Gunter

§ Orbital elements

Epoch: 2026-05-25T03:22:12.205920Z

Period
93.73 min
Inclination
97.4501°
Eccentricity
0.0006218
Mean motion
15.36393858 rev/d
Perigee alt
452.5 km
Apogee alt
461.0 km
Semi-major
6,834.9 km
B*
2.8302e-4
RAAN
282.4763°
Arg perigee
176.8504°
Mean anomaly
183.2780°
Rev number
47,883

§ Raw data

SKYSAT-C71 42991U 17068E   26145.14041905  .00009971  00000+0  28302-3 0  99922 42991  97.4501 282.4763 0006218 176.8504 183.2780 15.36393858478833

JSON: /api/v1/satellites/42991 · /tle

For live sub-satellite position, see the globe view (requires WebGL).

§ Visibility from observer

Set your observer location to see the next 7 days of passes ≥ 10°. The values pass through the URL so the page stays shareable.

No JS? Fill the form by hand. The geolocation button needs JavaScript.